Weather Roundup
Issued by NWS Chicago, IL

Home | Current Version | Previous Version | Text Only | Print | Product List | Glossary On
Versions: 1 2 3 4 5 6 7 8 9 10 11 12 13 14 15 16 17 18 19 20 21 22 23 24 25 26 27 28 29 30 31 32 33 34 35 36 37 38 39 40 41 42 43 44 45 46 47 48 49 50
000
NZUS59 KLOT 272010
HRRLOT

CHICAGO AREA WEATHER ROUNDUP
NATIONAL WEATHER SERVICE CHICAGO/ROMEOVILLE IL
300 PM CDT WED AUG 27 2014

NOTE: "FAIR" INDICATES FEW OR NO CLOUDS BELOW 12,000 FEET WITH NO
SIGNIFICANT WEATHER AND/OR OBSTRUCTIONS TO VISIBILITY.

* THESE STATIONS ARE NOT UNDER NWS QUALITY CONTROL. THEY ALSO MAY NOT
  REPORT WEATHER SUCH AS PRECIPITATION OR FOG.

ILZ005-006-012>014-019>023-272100-
NORTHEAST ILLINOIS

CITY           SKY/WX    TMP DP  RH WIND       PRES   REMARKS
OHARE          PTSUNNY   78  62  57 NE9       30.13S HX  80
MIDWAY         PTSUNNY   80  64  58 NE9       30.12F HX  82
AURORA         MOSUNNY   80  61  52 NW5       30.14S HX  81
LANSING*       MOSUNNY   77  63  62 NE8       30.13F
JOLIET*        MOSUNNY   81  58  45 W3        30.13F HX  81
WAUKEGAN       MOSUNNY   72  63  73 N7        30.15S
DUPAGE AIRPORT MOSUNNY   83  58  42 CALM      30.13F HX  83
WHEELING       MOSUNNY   77  64  64 NE9       30.15F
KANKAKEE*      PTSUNNY   80  67  64 NE5       30.12F HX  82
MORRIS*        MOSUNNY   81  65  59 CALM      30.12F HX  82
LEWIS AIRPORT* MOSUNNY   81  62  52 CALM      30.12F HX  82
NORTHERLY IS     N/A     74  64  71 N9          N/A
$$

WIZ051-052-058>065-066-070>072-272100-
SOUTHEAST WISCONSIN

CITY           SKY/WX    TMP DP  RH WIND       PRES   REMARKS
MILWAUKEE      PTSUNNY   70  62  76 E8        30.17S
KENOSHA*       PTSUNNY   73  63  70 E9        30.16F
RACINE*        PTSUNNY   72  62  71 E9        30.18S
BURLINGTON     PTSUNNY   74  59  58 CALM      30.16S
WAUKESHA       PTSUNNY   72  61  68 E6        30.18S
WEST BEND      CLOUDY    70  59  68 E6        30.17S
$$

INZ001>003-010>013-019-020-272100-
NORTHWEST INDIANA

CITY           SKY/WX    TMP DP  RH WIND       PRES   REMARKS
GARY*          MOSUNNY   77  64  65 NE14      30.14F
MICHIGAN CITY* NOT AVBL
RENSSELAER*    NOT AVBL
VALPARAISO     MOSUNNY   78  63  59 N7        30.13F HX  80
$$

LMZ740>746-272100-
SOUTHERN LAKE MICHIGAN

STATION/POSITION TIME  SKY/WX   TEMP WIND        PRES    VSBY
                                AIR  DIR/SP/G
                 (UTC)          (F)  (DEG/KT/KT) (MB)    (MI)
HARRISON CRIB    2000            70   30/  9/ 11   N/A
BURNHAM HARBOR   2000            73   20/  7/ 10   N/A
CALUMET HARBOR   2000            72   10/  8/ 12 1019.3F
BURNS HARBOR     NOT AVBL
MICHIGAN CITY    2000            70  360/ 14/ 15   N/A
$$

ABBREVIATIONS USED IN REMARKS
   TC - TEMPERATURE IN CELSIUS
  WCI - WIND CHILL INDEX
   HX - HEAT INDEX
  VSB - VISIBILITY
$$


USA.gov is the U.S. government's official web portal to all federal, state and local government web resources and services.